Location: Unspecified
(43.4680°N, 87.1740°E)
Time: 18:13:34
(UTC+00:00)

Okean 2 - Pass Details

Date: 02 August 2021
Orbit: 558 x 577 km, 82.5° (Epoch: 16 September)

Event Time Altitude Azimuth Distance (km) Brightness Sun altitude
Rises 20:22:58 0° 341° (NNW) 2,800 7.5 -22.6°
Reaches altitude 10° 20:25:21 10° 331° (NNW) 1,895 6.4 -22.3°
Enters shadow 20:28:07 27° 294° (WNW) 1,114 4.7 -22.1°
